This is the latest recevied weather packets stored in our database for station/object SQ9MHX-13. If no packets are shown the sender has not sent any weather packets the latest 10 day(s).
| Time | Temp. | Humidity | Pressure | Rain* | Wind** | Luminosity | Snow |
|---|---|---|---|---|---|---|---|
| 1777808904 | 23.89° C | 24% | 950.8 hPa | - | 0 m/s | - | - |
| 1777808605 | 23.89° C | 24% | 951.5 hPa | - | 0 m/s | - | - |
| 1777808306 | 23.89° C | 27% | 951.3 hPa | - | 0 m/s | - | - |
| 1777808007 | 25° C | 22% | 951.8 hPa | - | 0 m/s | - | - |
| 1777807408 | 25° C | 26% | 950.9 hPa | - | 0 m/s | - | - |
| 1777804714 | 23.89° C | 27% | 953.6 hPa | - | 0 m/s | - | - |
| 1777804415 | 22.22° C | 25% | 953.5 hPa | - | 0 m/s | - | - |
| 1777803816 | 23.89° C | 28% | 953.3 hPa | - | 0 m/s | - | - |
| 1777803517 | 22.78° C | 28% | 953.6 hPa | - | 0 m/s | - | - |
| 1777803218 | 22.78° C | 29% | 953.7 hPa | - | 0 m/s | - | - |
| 1777802918 | 22.78° C | 30% | 953.7 hPa | - | 0 m/s | - | - |
| 1777802320 | 22.78° C | 31% | 954.5 hPa | - | 0 m/s | - | - |
| 1777801722 | 22.78° C | 32% | 954.7 hPa | - | 0 m/s | - | - |
| 1777800824 | 22.78° C | 34% | 955.5 hPa | - | 0 m/s | - | - |
| 1777800524 | 22.78° C | 32% | 955 hPa | - | 0 m/s | - | - |
| 1777800225 | 22.78° C | 34% | 955.1 hPa | - | 0 m/s | - | - |
| 1777799926 | 22.22° C | 33% | 955.5 hPa | - | 0 m/s | - | - |
| 1777799627 | 22.22° C | 34% | 955.8 hPa | - | 0 m/s | - | - |
| 1777799328 | 22.22° C | 35% | 955.7 hPa | - | 0 m/s | - | - |
| 1777799028 | 22.22° C | 34% | 956.2 hPa | - | 0 m/s | - | - |
| 1777798729 | 22.22° C | 34% | 956 hPa | - | 0 m/s | - | - |
| 1777798430 | 22.22° C | 35% | 955.9 hPa | - | 0 m/s | - | - |
| 1777798131 | 22.22° C | 35% | 956.4 hPa | - | 0 m/s | - | - |
| 1777797532 | 22.22° C | 35% | 956.8 hPa | - | 0 m/s | - | - |
| 1777797234 | 22.22° C | 38% | 956.8 hPa | - | 0 m/s | - | - |
* Rain since midnight (hover to see other rain measurements)
** Current wind speed in m/s (hover to see current wind gust speed)